Content
SEND FEEDBACK

Daily
Averages
Monthly
Summary
United States of America

PLOVER, WISCONSIN


Home > North America > United States > Wisconsin
Elevation: 1070 feet     Latitude: 44 22N     Longitude: 089 32W

WEATHER
 
SELECT A DAY
Number of Records: 424,231;   Date Range: 8/5/97 - 10/30/14
 
SHARE

PRINT THIS DATA

[ ← Previous Day ]
WEATHER ALMANAC - FEBRUARY 13, 2013
[ Next Day → ]
[ °C ]   °F
Weather ElementAverageHighLow
Temperature24.9 °F34.2 °F (4:55 pm)11.3 °F (3:35 am)
Dewpoint20.1 °F25.9 °F (11:55 pm)9.5 °F (3:35 am)
Humidity83.2 %96 % (6:35 am)64 % (3:35 pm)
Barometer29.68 in29.78 in (12:35 am)29.61 in (11:35 pm)
Wind Speed2.7 mph6.9 mph (9:55 am)
Weather ElementAverage
Visibility7.7 mi
Wind DirectionSE (138.5 °)

Weather ElementTotal
Precipitation---
Heating Degree Days42.3 (Base 65)
Averaged from 71 records on February 13, 2013
WEATHER CONDITIONS BREAKOUT
WIND DIRECTION BREAKOUT
WEATHER BY HOUR - FEBRUARY 13, 2013
[ °C ]   °F
Local TimeTemperatureDewpointHumidityBarometerVisibilityWind DirectionWind SpeedGust SpeedPrecipitationEventsConditions
12:35 AM14.0 °F12.7 °F95 %29.78 in4.0 miSouth (170°)3.5 mphClear
12:55 AM12.7 °F11.3 °F94 %29.77 in7.0 miSouth (180°)5.8 mphClear
1:15 AM14.4 °F12.9 °F94 %29.76 in7.0 miSouth (190°)3.5 mphClear
1:35 AM16.2 °F14.9 °F95 %29.76 in5.0 miCalmClear
1:55 AM15.4 °F14.0 °F94 %29.76 in4.0 miCalmClear
2:15 AM14.4 °F13.1 °F95 %29.76 in2.0 miCalmScattered Clouds
2:35 AM13.8 °F12.4 °F94 %29.76 in1.5 miCalmScattered Clouds
2:55 AM12.9 °F11.3 °F93 %29.75 in4.0 miCalmClear
3:15 AM11.7 °F10.0 °F93 %29.74 in4.0 miCalmClear
3:35 AM11.3 °F9.5 °F92 %29.73 in4.0 miSouth (190°)3.5 mphClear
3:55 AM11.5 °F9.5 °F92 %29.73 in5.0 miSSW (200°)4.6 mphClear
4:15 AM14.5 °F13.1 °F94 %29.73 in5.0 miCalmMostly Cloudy
4:35 AM14.9 °F13.1 °F93 %29.73 in5.0 miCalmOvercast
4:55 AM15.8 °F14.5 °F95 %29.72 in4.0 miCalmOvercast
5:15 AM15.8 °F14.4 °F94 %29.72 in3.0 miCalmOvercast
5:35 AM15.6 °F14.2 °F94 %29.71 in3.0 miCalmOvercast
5:55 AM16.5 °F14.9 °F93 %29.71 in4.0 miCalmOvercast
6:15 AM16.3 °F14.9 °F94 %29.71 in5.0 miCalmOvercast
6:35 AM19.4 °F18.5 °F96 %29.71 in4.0 miWSW (250°)3.5 mphOvercast
6:55 AM20.1 °F19.0 °F96 %29.71 in5.0 miSW (220°)3.5 mphOvercast
7:15 AM20.1 °F19.0 °F96 %29.71 in3.0 miWest (260°)3.5 mphOvercast
7:35 AM20.3 °F19.2 °F96 %29.71 in4.0 miWest (260°)3.5 mphOvercast
7:55 AM20.7 °F19.4 °F95 %29.71 in5.0 miWSW (250°)3.5 mphOvercast
8:15 AM20.7 °F19.4 °F95 %29.70 in5.0 miWSW (250°)4.6 mphOvercast
8:35 AM20.8 °F19.8 °F96 %29.70 in5.0 miWSW (250°)4.6 mphOvercast
8:55 AM21.2 °F20.1 °F96 %29.70 in5.0 miWest (260°)4.6 mphOvercast
9:15 AM21.7 °F20.7 °F96 %29.69 in7.0 miWest (260°)4.6 mphOvercast
9:35 AM21.9 °F20.8 °F96 %29.69 in7.0 miWSW (250°)5.8 mphOvercast
9:55 AM22.5 °F21.2 °F95 %29.68 in7.0 miWest (260°)6.9 mphOvercast
10:15 AM23.4 °F21.9 °F94 %29.68 in10.0 miWest (280°)5.8 mphOvercast
10:35 AM24.4 °F21.7 °F89 %29.68 in10.0 miWest (270°)4.6 mphOvercast
10:55 AM25.9 °F20.1 °F79 %29.68 in10.0 miWest (280°)5.8 mphOvercast
11:15 AM26.6 °F20.1 °F77 %29.67 in10.0 miWSW (240°)3.5 mphOvercast
11:35 AM27.7 °F20.7 °F75 %29.67 in10.0 miWest (270°)5.8 mphOvercast
11:55 AM28.0 °F20.8 °F74 %29.67 in10.0 miWest (270°)4.6 mphOvercast
12:15 PM29.1 °F21.2 °F72 %29.66 in10.0 miWest (260°)5.8 mphOvercast
12:35 PM30.2 °F21.9 °F71 %29.66 in10.0 miWest (270°)3.5 mphOvercast
12:55 PM30.9 °F22.1 °F70 %29.66 in10.0 miWSW (240°)5.8 mphOvercast
1:15 PM31.6 °F22.6 °F69 %29.65 in10.0 miWest (270°)5.8 mphOvercast
1:35 PM32.0 °F22.3 °F67 %29.65 in10.0 miWest (260°)6.9 mphOvercast
1:55 PM32.0 °F22.3 °F67 %29.65 in10.0 miWest (270°)4.6 mphOvercast
2:15 PM32.4 °F22.1 °F66 %29.65 in10.0 miWSW (240°)3.5 mphOvercast
2:35 PM32.9 °F22.8 °F66 %29.65 in10.0 miWSW (240°)4.6 mphOvercast
2:55 PM33.1 °F22.8 °F66 %29.65 in10.0 miSW (230°)5.8 mphOvercast
3:15 PM33.6 °F23.0 °F65 %29.65 in10.0 miWest (270°)5.8 mphOvercast
3:35 PM34.0 °F22.8 °F64 %29.66 in10.0 miWest (270°)6.9 mphOvercast
3:55 PM34.0 °F22.8 °F64 %29.65 in10.0 miWest (260°)6.9 mphOvercast
4:15 PM34.0 °F23.0 °F64 %29.65 in10.0 miCalmOvercast
4:35 PM34.0 °F23.0 °F64 %29.65 in10.0 miCalmOvercast
4:55 PM34.2 °F23.0 °F64 %29.65 in10.0 miCalmOvercast
5:15 PM33.3 °F23.2 °F67 %29.65 in10.0 miCalmOvercast
5:35 PM32.2 °F23.0 °F69 %29.65 in10.0 miCalmOvercast
5:55 PM29.3 °F24.3 °F81 %29.65 in10.0 miCalmOvercast
6:15 PM30.2 °F23.7 °F77 %29.65 in10.0 miCalmOvercast
6:35 PM30.0 °F24.4 °F80 %29.65 in10.0 miSSW (200°)3.5 mphOvercast
6:55 PM29.7 °F24.8 °F82 %29.66 in10.0 miSSW (210°)4.6 mphOvercast
7:15 PM31.1 °F24.6 °F77 %29.66 in10.0 miSSW (200°)5.8 mphOvercast
7:35 PM30.9 °F24.8 °F78 %29.66 in10.0 miSouth (190°)4.6 mphOvercast
7:55 PM31.5 °F24.4 °F75 %29.65 in10.0 miSSW (210°)3.5 mphOvercast
8:15 PM30.9 °F24.3 °F76 %29.65 in10.0 miSSW (210°)3.5 mphOvercast
8:35 PM30.9 °F24.3 °F76 %29.65 in10.0 miCalmOvercast
8:55 PM30.2 °F24.3 °F79 %29.64 in10.0 miCalmOvercast
9:15 PM30.0 °F24.6 °F80 %29.65 in10.0 miCalmOvercast
9:35 PM29.5 °F24.6 °F82 %29.64 in10.0 miCalmOvercast
9:55 PM31.1 °F25.5 °F80 %29.63 in7.0 miSW (220°)3.5 mphOvercast
10:15 PM30.0 °F25.3 °F83 %29.63 in10.0 miCalmOvercast
10:35 PM29.8 °F25.3 °F83 %29.62 in10.0 miCalmOvercast
10:55 PM28.9 °F25.0 °F85 %29.62 in10.0 miCalmOvercast
11:15 PM28.4 °F24.8 °F86 %29.62 in10.0 miCalmOvercast
11:35 PM28.0 °F25.5 °F90 %29.61 in10.0 miCalmOvercast
11:55 PM27.9 °F25.9 °F92 %29.61 in7.0 miCalmOvercast
Hourly data recorded from KSTE, located miles away from Plover, Wisconsin







STORIES FROM OUR PARTNERS